�v������,���O�C��(��),���O���x(��),�Ɠx(lx),��O�J�Z���T�[(1:�~�J),����(m/s)
2022-08-01 00:00:00,28.2,82.4,2,0,2
2022-08-01 00:10:00,28.3,82.9,2,0,1.5
2022-08-01 00:20:00,28.3,83.1,0,0,2
2022-08-01 00:30:00,28.3,83.5,0,0,1
2022-08-01 00:40:00,28.2,83.3,0,0,1
2022-08-01 00:50:00,28.2,83.3,0,0,1
2022-08-01 01:00:00,28.3,83.4,0,0,1
2022-08-01 01:10:00,28.2,82.8,0,0,3
2022-08-01 01:20:00,28.4,82.6,2,0,1.5
2022-08-01 01:30:00,28.1,82.5,2,0,1.5
2022-08-01 01:40:00,28.4,82.3,0,0,2
2022-08-01 01:50:00,28,82.4,2,0,2
2022-08-01 02:00:00,28.2,82.5,0,0,2
2022-08-01 02:10:00,28.1,82.8,0,0,1
2022-08-01 02:20:00,28,83.2,2,0,1
2022-08-01 02:30:00,28.1,83.2,2,0,1
2022-08-01 02:40:00,28.2,83.1,2,0,2
2022-08-01 02:50:00,27.9,83,2,0,1.5
2022-08-01 03:00:00,28,83.2,2,0,1
2022-08-01 03:10:00,27.8,83.1,0,0,1
2022-08-01 03:20:00,28,83.4,0,0,1
2022-08-01 03:30:00,28,83.5,2,0,1
2022-08-01 03:40:00,28,83.8,0,0,1
2022-08-01 03:50:00,27.9,83.8,0,0,1.5
2022-08-01 04:00:00,28.2,83.1,0,0,3.5
2022-08-01 04:10:00,28,83,0,0,2
2022-08-01 04:20:00,28.2,83.1,2,0,1
2022-08-01 04:30:00,28.2,83,2,0,1
2022-08-01 04:40:00,27.9,83.5,2,0,1
2022-08-01 04:50:00,27.9,83.8,8,0,1
2022-08-01 05:00:00,27.8,83.9,60,0,2
2022-08-01 05:10:00,27.9,83.7,289.92,0,1
2022-08-01 05:20:00,27.8,83.7,999.68,0,2
2022-08-01 05:30:00,28,83.8,999.68,0,2
2022-08-01 05:40:00,27.9,84.1,1999.36,0,2
2022-08-01 05:50:00,27.7,84.7,3998.72,0,2
2022-08-01 06:00:00,28.2,83.2,6999.04,0,2
2022-08-01 06:10:00,28.5,81.8,6999.04,0,2
2022-08-01 06:20:00,28.3,81.7,6999.04,0,1
2022-08-01 06:30:00,28.6,81,16998.4,0,2
2022-08-01 06:40:00,29.1,79.3,16998.4,0,2
2022-08-01 06:50:00,29.3,78.9,15994.9,0,3
2022-08-01 07:00:00,29.6,77.1,15994.9,0,2
2022-08-01 07:10:00,29.7,76.3,24985.6,0,2
2022-08-01 07:20:00,30.1,75,11991,0,2
2022-08-01 07:30:00,29.7,76.5,24494.1,0,2.5
2022-08-01 07:40:00,29.6,77.4,88965.1,0,2
2022-08-01 07:50:00,30,75.3,85934.1,0,2
2022-08-01 08:00:00,30.3,74.2,84951,0,2
2022-08-01 08:10:00,30.6,72.8,79994.9,0,4
2022-08-01 08:20:00,31.1,71,82985,0,3
2022-08-01 08:30:00,31.5,69.6,82985,0,2
2022-08-01 08:40:00,31.3,69.1,84951,0,2.5
2022-08-01 08:50:00,31.4,68.9,41984,0,3
2022-08-01 09:00:00,31.6,68.6,29491.2,0,4
2022-08-01 09:10:00,31.4,69,18995.2,0,4.5
2022-08-01 09:20:00,31.6,69.1,54476.8,0,3
2022-08-01 09:30:00,32.3,65.1,56975.4,0,2
2022-08-01 09:40:00,32.2,64.6,51486.7,0,6
2022-08-01 09:50:00,32.1,64.8,46489.6,0,7
2022-08-01 10:00:00,32.4,64.6,43991,0,5.5
2022-08-01 10:10:00,32.9,63.4,42475.5,0,3
2022-08-01 10:20:00,33,62,42967,0,3
2022-08-01 10:30:00,33.4,60.8,43991,0,5
2022-08-01 10:40:00,33.8,59.4,48988.2,0,6
2022-08-01 10:50:00,33.6,59.2,38993.9,0,7
2022-08-01 11:00:00,33.1,60.6,36986.9,0,4.5
2022-08-01 11:10:00,33.3,60.8,16998.4,0,4
2022-08-01 11:20:00,33.7,58.9,25989.1,0,9
2022-08-01 11:30:00,33.6,58.8,26992.6,0,3
2022-08-01 11:40:00,34,58.2,33996.8,0,2
2022-08-01 11:50:00,33.5,59.5,23982.1,0,3
2022-08-01 12:00:00,33.6,59.4,38481.9,0,4
2022-08-01 12:10:00,33.9,57.7,29982.7,0,3
2022-08-01 12:20:00,34.2,56.5,18995.2,0,3
2022-08-01 12:30:00,34.7,55.8,33996.8,0,3.5
2022-08-01 12:40:00,34.4,55.8,29982.7,0,4
2022-08-01 12:50:00,34.2,56.9,30986.2,0,6.5
2022-08-01 13:00:00,34.4,55.4,25989.1,0,3
2022-08-01 13:10:00,34.4,55.3,33996.8,0,6
2022-08-01 13:20:00,34.5,55.4,27996.2,0,5.5
2022-08-01 13:30:00,34.7,54.7,37990.4,0,4
2022-08-01 13:40:00,34.3,56.1,14991.4,0,7
2022-08-01 13:50:00,34.3,56,33996.8,0,4
2022-08-01 14:00:00,34.6,54.9,31498.2,0,4.5
2022-08-01 14:10:00,34.4,55.4,13998.1,0,5
2022-08-01 14:20:00,33.9,56.2,28999.7,0,10
2022-08-01 14:30:00,34.1,56.4,14991.4,0,5
2022-08-01 14:40:00,34.4,55.3,21995.5,0,4
2022-08-01 14:50:00,34,55.2,35983.4,0,3
2022-08-01 15:00:00,34,56.1,30986.2,0,6
2022-08-01 15:10:00,34.1,56.1,30986.2,0,5
2022-08-01 15:20:00,35.2,54.2,34979.8,0,4
2022-08-01 15:30:00,34.6,55,31989.8,0,2.5
2022-08-01 15:40:00,33.9,57.3,32993.3,0,5
2022-08-01 15:50:00,33.5,57.2,30986.2,0,2
2022-08-01 16:00:00,34,56.5,30986.2,0,3.5
2022-08-01 16:10:00,34.2,56.4,31989.8,0,4
2022-08-01 16:20:00,34.1,55.6,31989.8,0,4.5
2022-08-01 16:30:00,33.9,56.4,29982.7,0,4
2022-08-01 16:40:00,33.2,58.2,28999.7,0,6
2022-08-01 16:50:00,33.3,58.5,27996.2,0,2.5
2022-08-01 17:00:00,33.5,58.1,26992.6,0,2
2022-08-01 17:10:00,33.3,58.7,25989.1,0,5
2022-08-01 17:20:00,33.3,58.6,24985.6,0,2
2022-08-01 17:30:00,32.6,60,23982.1,0,5.5
2022-08-01 17:40:00,32.3,61.3,22487,0,4.5
2022-08-01 17:50:00,32.6,60.8,20992,0,2
2022-08-01 18:00:00,32.3,61.8,17991.7,0,3
2022-08-01 18:10:00,32,63.7,16998.4,0,2.5
2022-08-01 18:20:00,31.8,64.6,12994.6,0,4
2022-08-01 18:30:00,31.7,64.7,8995.84,0,4
2022-08-01 18:40:00,31.2,67.6,2997.76,0,2
2022-08-01 18:50:00,30.9,69.6,1999.36,0,1
2022-08-01 19:00:00,30.6,70.8,999.68,0,1
2022-08-01 19:10:00,30.5,71.5,499.84,0,2
2022-08-01 19:20:00,30.2,72.8,165.92,0,3
2022-08-01 19:30:00,29.9,74.1,24,0,2
2022-08-01 19:40:00,29.6,74.8,4,0,2.5
2022-08-01 19:50:00,29.5,75.7,2,0,3
2022-08-01 20:00:00,29.7,76.1,2,0,2
2022-08-01 20:10:00,29.4,76.7,2,0,2
2022-08-01 20:20:00,29.3,77.3,2,0,3
2022-08-01 20:30:00,29.2,77.7,0,0,2
2022-08-01 20:40:00,29.2,78.1,0,0,2
2022-08-01 20:50:00,29.1,78.2,0,0,1
2022-08-01 21:00:00,29.2,78.6,0,0,1
2022-08-01 21:10:00,29.1,78.7,2,0,1.5
2022-08-01 21:20:00,29.1,78.7,0,0,1
2022-08-01 21:30:00,29.3,78.4,2,0,1
2022-08-01 21:40:00,29.1,78.8,0,0,0
2022-08-01 21:50:00,29,79.1,2,0,0
2022-08-01 22:00:00,28.9,79.5,0,0,1
2022-08-01 22:10:00,28.9,79.9,0,0,2
2022-08-01 22:20:00,28.6,80.2,0,0,1
2022-08-01 22:30:00,28.8,80.6,2,0,1
2022-08-01 22:40:00,28.8,80.9,2,0,0.5
2022-08-01 22:50:00,28.7,81.1,0,0,1
2022-08-01 23:00:00,28.5,81.3,2,0,1
2022-08-01 23:10:00,28.7,81.1,2,0,1
2022-08-01 23:20:00,28.8,81.1,0,0,0
2022-08-01 23:30:00,28.5,81.4,2,0,1
2022-08-01 23:40:00,28.6,81.5,0,0,1
2022-08-01 23:50:00,28.6,81.6,0,0,0.5
2022-08-02 00:00:00,28.5,81.5,2,0,1
2022-08-02 00:10:00,28.5,82,0,0,1
2022-08-02 00:20:00,28.5,82.5,2,0,1
2022-08-02 00:30:00,28.3,82.4,2,0,1
2022-08-02 00:40:00,28.3,82.6,0,0,1
2022-08-02 00:50:00,28.2,82.9,0,0,1
2022-08-02 01:00:00,28.1,83.4,0,0,1
2022-08-02 01:10:00,28,84,0,0,1
2022-08-02 01:20:00,27.9,84.4,0,0,1
2022-08-02 01:30:00,28.1,84.7,0,0,1
2022-08-02 01:40:00,27.8,85,0,0,0
2022-08-02 01:50:00,27.9,84.8,0,0,0
2022-08-02 02:00:00,27.8,85,0,0,1
2022-08-02 02:10:00,27.8,85,0,0,1
2022-08-02 02:20:00,28,85.3,0,0,1
2022-08-02 02:30:00,27.7,85.6,0,0,1
2022-08-02 02:40:00,27.7,85.5,0,0,1
2022-08-02 02:50:00,28,85.3,0,0,0
2022-08-02 03:00:00,27.9,85.2,0,0,1
2022-08-02 03:10:00,27.9,85.5,2,0,1
2022-08-02 03:20:00,27.8,85.1,0,0,1
2022-08-02 03:30:00,27.9,85.2,0,0,1
2022-08-02 03:40:00,27.8,86,0,0,1
2022-08-02 03:50:00,27.5,86.9,0,0,1
2022-08-02 04:00:00,27.4,87.4,0,0,0
2022-08-02 04:10:00,27.3,87.7,0,0,1
2022-08-02 04:20:00,27.1,87.6,0,0,1
2022-08-02 04:30:00,27.3,87.8,0,0,1
2022-08-02 04:40:00,27,88.4,2,0,1
2022-08-02 04:50:00,26.9,88.7,4,0,1
2022-08-02 05:00:00,26.5,89.4,26,0,1
2022-08-02 05:10:00,26.5,90.2,225.92,0,0
2022-08-02 05:20:00,26.5,90,999.68,0,0
2022-08-02 05:30:00,26.3,89.8,999.68,0,1
2022-08-02 05:40:00,26.4,89.8,1999.36,0,1
2022-08-02 05:50:00,26.4,90.3,2997.76,0,1
2022-08-02 06:00:00,26.5,89.3,3998.72,0,1
2022-08-02 06:10:00,26.7,86.8,6999.04,0,1
2022-08-02 06:20:00,26.8,86,6999.04,0,1
2022-08-02 06:30:00,27.2,85.7,8995.84,0,1
2022-08-02 06:40:00,27.4,84.9,9999.36,0,1
2022-08-02 06:50:00,27.5,82.9,9999.36,0,1
2022-08-02 07:00:00,27.9,81.6,10997.8,0,1
2022-08-02 07:10:00,28.3,80.2,10997.8,0,1
2022-08-02 07:20:00,28.4,79.2,23982.1,0,1
2022-08-02 07:30:00,29,77.8,79994.9,0,2
2022-08-02 07:40:00,29.7,75.8,88965.1,0,1
2022-08-02 07:50:00,29.8,74,87982.1,0,1
2022-08-02 08:00:00,30,74,85934.1,0,1
2022-08-02 08:10:00,30.1,74.4,83968,0,1
2022-08-02 08:20:00,31.4,69.6,80977.9,0,1
2022-08-02 08:30:00,31.6,67.2,77987.8,0,2
2022-08-02 08:40:00,31.5,67.4,73973.8,0,3
2022-08-02 08:50:00,32,64.7,69959.7,0,1
2022-08-02 09:00:00,32.4,63.2,65986.6,0,1
2022-08-02 09:10:00,32.8,61.5,62996.5,0,3
2022-08-02 09:20:00,33,60.7,58982.4,0,3
2022-08-02 09:30:00,33.1,59.6,55992.3,0,3.5
2022-08-02 09:40:00,33.5,58.1,52961.3,0,2.5
2022-08-02 09:50:00,34.1,55.3,48988.2,0,2
2022-08-02 10:00:00,34.1,54.2,46981.1,0,3
2022-08-02 10:10:00,34.4,54.1,39997.4,0,3
2022-08-02 10:20:00,34.8,52.3,35491.8,0,3
2022-08-02 10:30:00,35.3,52.3,33484.8,0,2
2022-08-02 10:40:00,35.4,52.1,29491.2,0,1
2022-08-02 10:50:00,34.3,57.6,31989.8,0,3
2022-08-02 11:00:00,32.4,63.8,30494.7,0,4
2022-08-02 11:10:00,32.3,66.9,29982.7,0,2.5
2022-08-02 11:20:00,31.8,69.5,17489.9,0,3
2022-08-02 11:30:00,31.9,68.2,24494.1,0,4
2022-08-02 11:40:00,31.8,68.1,27996.2,0,4
2022-08-02 11:50:00,32,69.5,26992.6,0,2
2022-08-02 12:00:00,32.6,66.1,25497.6,0,2
2022-08-02 12:10:00,32.6,66.1,26480.6,0,2
2022-08-02 12:20:00,32.4,68,26480.6,0,3
2022-08-02 12:30:00,32.7,66.5,25989.1,0,2
2022-08-02 12:40:00,32.7,67.8,27996.2,0,2
2022-08-02 12:50:00,33.3,63.6,27996.2,0,4
2022-08-02 13:00:00,32.6,67.1,29982.7,0,3.5
2022-08-02 13:10:00,32.6,66,28487.7,0,3
2022-08-02 13:20:00,32.7,64.9,26992.6,0,3
2022-08-02 13:30:00,32.7,65,27996.2,0,2
2022-08-02 13:40:00,33,64.4,28999.7,0,4.5
2022-08-02 13:50:00,33,65.1,28999.7,0,3.5
2022-08-02 14:00:00,32.6,65.7,29982.7,0,5
2022-08-02 14:10:00,32.2,67.9,29982.7,0,4.5
2022-08-02 14:20:00,33,64.1,29982.7,0,3.5
2022-08-02 14:30:00,32.9,65.1,29982.7,0,4
2022-08-02 14:40:00,33,64.5,30986.2,0,4
2022-08-02 14:50:00,32.9,65.9,31989.8,0,3
2022-08-02 15:00:00,33.3,64.4,31989.8,0,3.5
2022-08-02 15:10:00,32.9,65.9,31989.8,0,3
2022-08-02 15:20:00,32.6,66.5,33996.8,0,4.5
2022-08-02 15:30:00,32.7,66.3,34979.8,0,3
2022-08-02 15:40:00,32.5,66.7,34979.8,0,4.5
2022-08-02 15:50:00,32.3,68.3,33996.8,0,4.5
2022-08-02 16:00:00,32.3,68,34979.8,0,2
2022-08-02 16:10:00,32.7,67.1,34979.8,0,2
2022-08-02 16:20:00,32.6,67.9,33996.8,0,5
2022-08-02 16:30:00,32.7,68.2,31989.8,0,3
2022-08-02 16:40:00,32,71.4,29982.7,0,2.5
2022-08-02 16:50:00,31.7,72,28999.7,0,3
2022-08-02 17:00:00,32,71.3,28999.7,0,3
2022-08-02 17:10:00,31.6,72.2,10997.8,0,2
2022-08-02 17:20:00,30.9,74.4,10997.8,0,1
2022-08-02 17:30:00,31.7,71.4,21995.5,0,1
2022-08-02 17:40:00,32.2,69,20992,0,1
2022-08-02 17:50:00,33.2,63.8,16998.4,0,2
2022-08-02 18:00:00,33.5,62.6,11991,0,2
2022-08-02 18:10:00,32.6,67.5,12994.6,0,2
2022-08-02 18:20:00,32.5,67.7,8995.84,0,2
2022-08-02 18:30:00,32.5,66.4,4999.68,0,1
2022-08-02 18:40:00,32.3,67,2997.76,0,1
2022-08-02 18:50:00,32.2,67.6,999.68,0,1
2022-08-02 19:00:00,31.7,68.1,499.84,0,1
2022-08-02 19:10:00,31.7,69.1,158,0,3
2022-08-02 19:20:00,31.4,70.1,54,0,1
2022-08-02 19:30:00,31.2,71.2,6,0,1
2022-08-02 19:40:00,30.8,72.2,2,0,1
2022-08-02 19:50:00,30.6,73.1,2,0,2.5
2022-08-02 20:00:00,30.5,73.5,2,0,2
2022-08-02 20:10:00,30.5,73.4,2,0,1
2022-08-02 20:20:00,30.6,74,2,0,2
2022-08-02 20:30:00,30,74.8,2,0,3
2022-08-02 20:40:00,30.1,75.3,0,0,2
2022-08-02 20:50:00,29.9,75.7,2,0,2
2022-08-02 21:00:00,30,76,2,0,1
2022-08-02 21:10:00,29.8,76.8,2,0,2
2022-08-02 21:20:00,29.8,77.1,0,0,1.5
2022-08-02 21:30:00,29.8,77.3,2,0,2
2022-08-02 21:40:00,29.7,77.6,0,0,1
2022-08-02 21:50:00,29.7,78.1,2,0,2
2022-08-02 22:00:00,29.6,78.5,0,0,1
2022-08-02 22:10:00,29.6,79.5,2,0,1
2022-08-02 22:20:00,29.4,79.7,2,0,0
2022-08-02 22:30:00,29.3,79.8,2,0,1
2022-08-02 22:40:00,29.4,79.9,2,0,1
2022-08-02 22:50:00,29.2,80.6,0,0,1
2022-08-02 23:00:00,29.4,80.6,2,0,1.5
2022-08-02 23:10:00,29.2,80.9,0,0,1
2022-08-02 23:20:00,29.1,81,2,0,1.5
2022-08-02 23:30:00,29,81.9,0,0,1
2022-08-02 23:40:00,29.1,82.2,0,0,0
2022-08-02 23:50:00,29,82.4,0,0,0
2022-08-03 00:00:00,28.8,84.6,2,0,1
2022-08-03 00:10:00,28.6,85.9,2,0,1
2022-08-03 00:20:00,28.5,87.7,2,0,1
2022-08-03 00:30:00,28,88.9,2,0,1
2022-08-03 00:40:00,28,89.2,0,0,0
2022-08-03 00:50:00,28.1,87.8,0,0,0
2022-08-03 01:00:00,28.1,88.3,0,0,1
2022-08-03 01:10:00,28.2,88.8,2,0,0.5
2022-08-03 01:20:00,28.2,88.7,0,0,1
2022-08-03 01:30:00,28.2,88.6,2,0,1
2022-08-03 01:40:00,28,88.9,0,0,0
2022-08-03 01:50:00,28.3,88.6,2,0,0
2022-08-03 02:00:00,28.3,87.4,0,0,0
2022-08-03 02:10:00,28.2,87.4,2,0,0
2022-08-03 02:20:00,28.4,87.5,0,0,1
2022-08-03 02:30:00,28.3,87.8,2,0,1
2022-08-03 02:40:00,28.1,88.2,2,0,1.5
2022-08-03 02:50:00,28.2,88.4,0,0,0.5
2022-08-03 03:00:00,28.1,88.6,2,0,1
2022-08-03 03:10:00,28,88.6,0,0,0
2022-08-03 03:20:00,28,88.7,0,0,0
2022-08-03 03:30:00,28.1,88.6,2,0,0.5
2022-08-03 03:40:00,28.2,88.3,2,0,1
2022-08-03 03:50:00,27.7,88.6,0,0,1
2022-08-03 04:00:00,27.6,89.3,2,0,1
2022-08-03 04:10:00,27.8,89.3,2,0,1
2022-08-03 04:20:00,27.6,89.8,0,0,1
2022-08-03 04:30:00,27.8,89.3,2,0,1
2022-08-03 04:40:00,27.8,88.4,2,0,1
2022-08-03 04:50:00,27.8,88.3,2,0,1
2022-08-03 05:00:00,27.6,88.5,22,0,1
2022-08-03 05:10:00,27.6,89.4,148,0,1
2022-08-03 05:20:00,27.3,89.8,499.84,0,1
2022-08-03 05:30:00,27.1,89.7,999.68,0,0
2022-08-03 05:40:00,27.3,89.7,1999.36,0,1
2022-08-03 05:50:00,27.2,88.5,2997.76,0,2
2022-08-03 06:00:00,28.1,85.8,4999.68,0,1
2022-08-03 06:10:00,28.2,83.8,6999.04,0,1
2022-08-03 06:20:00,28.1,83.6,9999.36,0,0
2022-08-03 06:30:00,28.2,83.7,12994.6,0,1
2022-08-03 06:40:00,28.4,83.3,8995.84,0,0
2022-08-03 06:50:00,27.8,90.2,8995.84,0,3
2022-08-03 07:00:00,27.3,93.9,11991,0,2
2022-08-03 07:10:00,27.5,93.9,16998.4,0,1
2022-08-03 07:20:00,27.5,92.9,23982.1,0,1
2022-08-03 07:30:00,27.7,92.3,64962.6,0,2
2022-08-03 07:40:00,28.5,88.8,78970.9,0,1
2022-08-03 07:50:00,28.9,86.2,80977.9,0,1
2022-08-03 08:00:00,28.3,88.6,36986.9,0,2
2022-08-03 08:10:00,28.2,89.7,59473.9,0,2
2022-08-03 08:20:00,28.5,87.7,25497.6,0,3
2022-08-03 08:30:00,28.5,88.9,47964.2,0,3
2022-08-03 08:40:00,28.7,87,68485.1,0,1
2022-08-03 08:50:00,29.2,83.9,65986.6,0,1
2022-08-03 09:00:00,29.4,82,61972.5,0,2
2022-08-03 09:10:00,29.5,81.9,58982.4,0,3
2022-08-03 09:20:00,30,77.4,57999.4,0,1
2022-08-03 09:30:00,31.6,70.7,55992.3,0,1
2022-08-03 09:40:00,32.5,67.7,52961.3,0,1
2022-08-03 09:50:00,32.2,66.7,52961.3,0,2
2022-08-03 10:00:00,33.5,63.9,53985.3,0,3
2022-08-03 10:10:00,32.2,67.1,35983.4,0,2
2022-08-03 10:20:00,32.8,65.5,40980.5,0,1.5
2022-08-03 10:30:00,33.8,62.4,20992,0,1.5
2022-08-03 10:40:00,33.6,62.1,35983.4,0,2
2022-08-03 10:50:00,33.7,61.7,35491.8,0,2
2022-08-03 11:00:00,34.3,59.2,33484.8,0,2
2022-08-03 11:10:00,34.2,58.9,14991.4,0,2
2022-08-03 11:20:00,33.9,60.5,20490.2,0,1.5
2022-08-03 11:30:00,33.7,60.1,24985.6,0,1
2022-08-03 11:40:00,34.7,57.5,24985.6,0,1
2022-08-03 11:50:00,34,60,18995.2,0,3
2022-08-03 12:00:00,34.7,57.4,25497.6,0,1
2022-08-03 12:10:00,35.2,56.4,20490.2,0,1
2022-08-03 12:20:00,34.7,57.4,32481.3,0,2.5
2022-08-03 12:30:00,34.4,58.8,21995.5,0,2
2022-08-03 12:40:00,35,58.2,28999.7,0,1.5
2022-08-03 12:50:00,34.4,57.6,30494.7,0,3
2022-08-03 13:00:00,33.8,59.5,32993.3,0,2.5
2022-08-03 13:10:00,33.7,58.1,30986.2,0,2
2022-08-03 13:20:00,32.5,60.6,29982.7,0,4.5
2022-08-03 13:30:00,32.4,61.5,28999.7,0,5
2022-08-03 13:40:00,32.5,62.1,28487.7,0,4.5
2022-08-03 13:50:00,32.6,62.7,29982.7,0,5
2022-08-03 14:00:00,32.9,61.5,29982.7,0,2
2022-08-03 14:10:00,33.1,61.8,31989.8,0,3.5
2022-08-03 14:20:00,33.6,60.8,30986.2,0,1.5
2022-08-03 14:30:00,33.2,60.4,31989.8,0,3
2022-08-03 14:40:00,33.3,62.6,31989.8,0,3
2022-08-03 14:50:00,32.4,68.6,32993.3,0,4
2022-08-03 15:00:00,33.1,63.5,32993.3,0,2
2022-08-03 15:10:00,32.5,70.7,33996.8,0,4
2022-08-03 15:20:00,33.3,64.3,32993.3,0,2
2022-08-03 15:30:00,33.2,64.4,35983.4,0,1
2022-08-03 15:40:00,32.9,64.4,35983.4,0,3
2022-08-03 15:50:00,33.5,57.6,34979.8,0,2
2022-08-03 16:00:00,33.1,59,19998.7,0,3
2022-08-03 16:10:00,33.4,59.9,33996.8,0,1
2022-08-03 16:20:00,32.6,66.3,33996.8,0,2
2022-08-03 16:30:00,33,63.5,35983.4,0,2.5
2022-08-03 16:40:00,33.6,58.7,30986.2,0,5
2022-08-03 16:50:00,32.7,59.7,10997.8,0,2
2022-08-03 17:00:00,33.1,61.2,26992.6,0,1
2022-08-03 17:10:00,31.5,72.3,9999.36,0,2
2022-08-03 17:20:00,30,80.9,10997.8,0,3
2022-08-03 17:30:00,30.1,79.4,7997.44,0,1
2022-08-03 17:40:00,30.1,79.8,5995.52,0,2
2022-08-03 17:50:00,30.1,79.3,11991,0,0.5
2022-08-03 18:00:00,30.2,77.7,13998.1,0,2
2022-08-03 18:10:00,30.2,77,6999.04,0,3
2022-08-03 18:20:00,30.3,76.4,4999.68,0,2
2022-08-03 18:30:00,30.6,75.5,2997.76,0,2
2022-08-03 18:40:00,30.6,74.4,1999.36,0,1
2022-08-03 18:50:00,30.9,72.7,999.68,0,1
2022-08-03 19:00:00,31,72,999.68,0,1
2022-08-03 19:10:00,30.6,74.3,320,0,1
2022-08-03 19:20:00,30.5,74.1,66,0,1
2022-08-03 19:30:00,30.5,74.2,6,0,1
2022-08-03 19:40:00,30.8,73,2,0,1
2022-08-03 19:50:00,30.3,74.5,2,0,1
2022-08-03 20:00:00,30.5,74,2,0,1
2022-08-03 20:10:00,30.6,73.7,2,0,1
2022-08-03 20:20:00,30.4,74.1,0,0,1
2022-08-03 20:30:00,30.4,74.4,2,0,1
2022-08-03 20:40:00,30.4,74.7,2,0,1
2022-08-03 20:50:00,30,75.5,2,0,1
2022-08-03 21:00:00,30.3,74.9,2,0,1
2022-08-03 21:10:00,30.2,74.9,2,0,1
2022-08-03 21:20:00,29.8,77.9,2,0,1
2022-08-03 21:30:00,29.6,78.3,0,0,1
2022-08-03 21:40:00,29.6,78,2,0,0
2022-08-03 21:50:00,29.4,78,2,0,0
2022-08-03 22:00:00,29.7,78.2,2,0,1
2022-08-03 22:10:00,29.6,78.2,2,0,1
2022-08-03 22:20:00,29.5,78.3,0,0,0
2022-08-03 22:30:00,29.5,78.5,2,0,0
2022-08-03 22:40:00,29.4,78.6,2,0,1
2022-08-03 22:50:00,29.4,78.2,0,0,2
2022-08-03 23:00:00,29.2,78.8,0,0,2
2022-08-03 23:10:00,29.2,80,0,0,1
2022-08-03 23:20:00,29.1,80.8,0,0,1
2022-08-03 23:30:00,29,81.8,0,0,1
2022-08-03 23:40:00,29,82,2,0,0
2022-08-03 23:50:00,28.9,82.2,0,0,1
2022-08-04 00:00:00,28.6,82,0,0,1
2022-08-04 00:10:00,28.8,81.8,0,0,1
2022-08-04 00:20:00,28.7,81.6,0,0,1.5
2022-08-04 00:30:00,28.5,82.5,0,0,1
2022-08-04 00:40:00,28.6,82.8,0,0,1
2022-08-04 00:50:00,28.6,82.6,0,0,1
2022-08-04 01:00:00,28.2,83.1,0,0,0
2022-08-04 01:10:00,28.3,83.2,0,0,0
2022-08-04 01:20:00,28.3,83.4,0,0,1
2022-08-04 01:30:00,28.2,83.6,0,0,1
2022-08-04 01:40:00,28.2,84,2,0,1
2022-08-04 01:50:00,28.2,84,2,0,1
2022-08-04 02:00:00,27.9,84.3,2,0,1
2022-08-04 02:10:00,28.2,84.7,2,0,0
2022-08-04 02:20:00,28,84.2,2,0,1
2022-08-04 02:30:00,27.9,84.4,0,0,1
2022-08-04 02:40:00,27.9,85,2,0,2
2022-08-04 02:50:00,27.8,86.1,2,0,1
2022-08-04 03:00:00,27.5,86.8,2,0,1
2022-08-04 03:10:00,27.3,87.4,2,0,2
2022-08-04 03:20:00,27.4,87.2,0,0,0
2022-08-04 03:30:00,27.2,88.1,2,0,1.5
2022-08-04 03:40:00,27.4,87.8,0,0,1
2022-08-04 03:50:00,27.2,88.1,2,0,1
2022-08-04 04:00:00,27,88.7,0,0,1
2022-08-04 04:10:00,27.2,88.7,0,0,2
2022-08-04 04:20:00,26.8,88.1,2,0,1
2022-08-04 04:30:00,26.9,87.8,0,0,1
2022-08-04 04:40:00,26.7,88.1,2,0,1
2022-08-04 04:50:00,26.9,88.8,2,0,1
2022-08-04 05:00:00,26.8,89.1,12,0,1.5
2022-08-04 05:10:00,26.8,88.8,999.68,0,1
2022-08-04 05:20:00,26.7,88.4,999.68,0,1
2022-08-04 05:30:00,26.5,88.4,1999.36,0,1
2022-08-04 05:40:00,26.7,87.9,3998.72,0,2
2022-08-04 05:50:00,27,87.4,5995.52,0,2
2022-08-04 06:00:00,26.8,86.2,6999.04,0,1
2022-08-04 06:10:00,26.9,86,9999.36,0,1
2022-08-04 06:20:00,26.9,84.9,10997.8,0,1
2022-08-04 06:30:00,27,85.5,10997.8,0,1
2022-08-04 06:40:00,27.3,82.8,14991.4,0,2
2022-08-04 06:50:00,27.5,80.7,13998.1,0,1
2022-08-04 07:00:00,28.2,78.7,15994.9,0,1
2022-08-04 07:10:00,28.5,77.4,17991.7,0,1
2022-08-04 07:20:00,28.7,76.7,58982.4,0,1
2022-08-04 07:30:00,29.2,74.2,76472.3,0,2
2022-08-04 07:40:00,29.6,73.5,74997.8,0,1
2022-08-04 07:50:00,30.3,72.7,77987.8,0,1
2022-08-04 08:00:00,30.5,71.7,62996.5,0,1
2022-08-04 08:10:00,30.8,70.8,78970.9,0,1
2022-08-04 08:20:00,31.4,68.9,77987.8,0,1
2022-08-04 08:30:00,31.7,65.3,73973.8,0,1
2022-08-04 08:40:00,31.7,64.9,58982.4,0,1
2022-08-04 08:50:00,31.7,65,46981.1,0,1
2022-08-04 09:00:00,31.3,68.8,64962.6,0,1
2022-08-04 09:10:00,30.5,73.8,50995.2,0,3
2022-08-04 09:20:00,30.9,71.9,54968.3,0,3
2022-08-04 09:30:00,31.6,68.8,48988.2,0,1
2022-08-04 09:40:00,32.7,63.8,52961.3,0,2
2022-08-04 09:50:00,33.4,61.8,47472.6,0,1
2022-08-04 10:00:00,33.2,61.6,43991,0,2
2022-08-04 10:10:00,33.5,58.9,22999,0,2.5
2022-08-04 10:20:00,33.6,60.5,34979.8,0,1
2022-08-04 10:30:00,33.2,57.3,21995.5,0,2
2022-08-04 10:40:00,33.5,58.3,27484.2,0,1.5
2022-08-04 10:50:00,34.1,56.5,28999.7,0,1.5
2022-08-04 11:00:00,34.3,54.2,41492.5,0,2
2022-08-04 11:10:00,33.6,57.1,25989.1,0,2
2022-08-04 11:20:00,34.2,55.8,47964.2,0,2
2022-08-04 11:30:00,33.2,58.2,29982.7,0,2
2022-08-04 11:40:00,32.6,62.9,30986.2,0,3
2022-08-04 11:50:00,32.7,60.9,37498.9,0,1
2022-08-04 12:00:00,32.8,58.5,30986.2,0,3
2022-08-04 12:10:00,32.2,63.3,28999.7,0,1
2022-08-04 12:20:00,31.8,63.9,30986.2,0,3
2022-08-04 12:30:00,32,65.8,49479.7,0,2.5
2022-08-04 12:40:00,32.3,63.4,28487.7,0,2
2022-08-04 12:50:00,31.9,65.4,34979.8,0,4
2022-08-04 13:00:00,31.8,65.7,31989.8,0,3.5
2022-08-04 13:10:00,33.2,60.7,27996.2,0,1
2022-08-04 13:20:00,33.6,58.9,24985.6,0,2
2022-08-04 13:30:00,33.5,60,21995.5,0,3
2022-08-04 13:40:00,32.6,63.8,26992.6,0,3
2022-08-04 13:50:00,32.4,63.4,21995.5,0,3
2022-08-04 14:00:00,32.4,65.7,51978.2,0,3
2022-08-04 14:10:00,34.3,57.1,37990.4,0,2
2022-08-04 14:20:00,35,55,21483.5,0,1
2022-08-04 14:30:00,34.2,58.8,22999,0,2
2022-08-04 14:40:00,31.8,65.5,46981.1,0,3.5
2022-08-04 14:50:00,32.1,64.8,21995.5,0,3
2022-08-04 15:00:00,32.1,64.7,42967,0,2
2022-08-04 15:10:00,32.1,64.8,32993.3,0,3
2022-08-04 15:20:00,32.5,63.7,42967,0,2
2022-08-04 15:30:00,33.3,61.4,31498.2,0,2.5
2022-08-04 15:40:00,33.4,61.3,17991.7,0,4.5
2022-08-04 15:50:00,32.2,65.7,12994.6,0,2
2022-08-04 16:00:00,31.7,67,16998.4,0,1
2022-08-04 16:10:00,32,66.7,42967,0,1.5
2022-08-04 16:20:00,32.1,66.9,31498.2,0,1
2022-08-04 16:30:00,32.3,66.1,37990.4,0,2
2022-08-04 16:40:00,32.9,64.4,19998.7,0,2
2022-08-04 16:50:00,32.6,66,31498.2,0,2
2022-08-04 17:00:00,32.3,67.9,14499.8,0,4
2022-08-04 17:10:00,31.9,68.5,12994.6,0,2
2022-08-04 17:20:00,31.8,69.3,8995.84,0,2.5
2022-08-04 17:30:00,31.6,71,9999.36,0,2.5
2022-08-04 17:40:00,31.3,70,24985.6,0,4
2022-08-04 17:50:00,31.6,69.4,22999,0,2.5
2022-08-04 18:00:00,31.8,69,20992,0,3
2022-08-04 18:10:00,31.7,69.5,4999.68,0,3
2022-08-04 18:20:00,31,71.2,2997.76,0,3
2022-08-04 18:30:00,31.1,71.2,2997.76,0,0
2022-08-04 18:40:00,31,71.2,1999.36,0,2
2022-08-04 18:50:00,30.9,73.4,1999.36,0,1
2022-08-04 19:00:00,30.5,74.5,999.68,0,2
2022-08-04 19:10:00,30.7,74,448,0,2
2022-08-04 19:20:00,30.5,73.3,52,0,2
2022-08-04 19:30:00,30.5,73.2,8,0,1
2022-08-04 19:40:00,30.6,73.2,2,0,1
2022-08-04 19:50:00,30.9,72.8,2,0,0
2022-08-04 20:00:00,30.9,72.9,2,0,1
2022-08-04 20:10:00,30.7,73.7,2,0,1
2022-08-04 20:20:00,30.7,72.6,2,0,0
2022-08-04 20:30:00,30.7,72.9,2,0,1
2022-08-04 20:40:00,30.7,71.9,2,0,1
2022-08-04 20:50:00,30.9,71.1,2,0,0
2022-08-04 21:00:00,31.1,70.9,2,0,1
2022-08-04 21:10:00,30.7,71.4,2,0,1
2022-08-04 21:20:00,30.9,71.2,2,0,1
2022-08-04 21:30:00,31,72.6,2,0,0.5
2022-08-04 21:40:00,30.1,75.8,2,0,2
2022-08-04 21:50:00,30.1,75.6,2,0,1
2022-08-04 22:00:00,30.3,75.4,2,0,1
2022-08-04 22:10:00,30.2,75.9,2,0,1
2022-08-04 22:20:00,29.8,76.5,2,0,1
2022-08-04 22:30:00,29.9,76.9,2,0,0.5
2022-08-04 22:40:00,29.9,77.8,2,0,1
2022-08-04 22:50:00,29.8,78.9,0,0,0
2022-08-04 23:00:00,29.8,78.3,2,0,1
2022-08-04 23:10:00,29.7,78.4,2,0,1
2022-08-04 23:20:00,29.5,76.4,0,0,1
2022-08-04 23:30:00,29.4,76.4,0,0,1
2022-08-04 23:40:00,29.4,77.1,2,0,1
2022-08-04 23:50:00,29.3,77.6,0,0,0
2022-08-05 00:00:00,29.2,78.3,0,0,1
2022-08-05 00:10:00,28.9,78.9,0,0,1
2022-08-05 00:20:00,29.1,80.4,2,0,1
2022-08-05 00:30:00,28.7,81.6,0,0,1
2022-08-05 00:40:00,28.7,81.9,0,0,1
2022-08-05 00:50:00,28.7,81.8,2,0,1
2022-08-05 01:00:00,28.8,81.7,0,0,1
2022-08-05 01:10:00,28.9,82.1,0,0,1
2022-08-05 01:20:00,28.5,83.5,0,0,1
2022-08-05 01:30:00,28.6,83.9,0,0,0
2022-08-05 01:40:00,28.4,84.2,0,0,1
2022-08-05 01:50:00,28.3,83.9,2,0,0.5
2022-08-05 02:00:00,28.4,83.3,0,0,1
2022-08-05 02:10:00,28.2,84.1,0,0,0
2022-08-05 02:20:00,28.3,84.6,0,0,1
2022-08-05 02:30:00,28.3,84.8,0,0,1
2022-08-05 02:40:00,28.1,86.1,0,0,0
2022-08-05 02:50:00,28,86.9,2,0,1
2022-08-05 03:00:00,27.8,87.7,2,0,1